Time,TemperatureF,DewpointF,PressureIn,WindDirection,WindDirectionDegrees,WindSpeedMPH,WindSpeedGustMPH,Humidity,HourlyPrecipIn,Conditions,Clouds,dailyrainin,SoftwareType,DateUTC
2013-02-14 00:02:00,30.6,26.2,30.33,NNE,16,0.0,3.0,84,0.00,,,0.05,meteohub,2013-02-13 23:02:00,
2013-02-14 00:32:00,30.4,26.1,30.33,NNE,16,0.0,2.0,84,0.00,,,0.05,meteohub,2013-02-13 23:32:00,
2013-02-14 01:02:00,30.4,26.4,30.33,NNE,13,0.0,3.0,85,0.00,,,0.05,meteohub,2013-02-14 00:02:00,
2013-02-14 01:32:00,30.2,26.2,30.33,NNE,13,0.0,1.0,85,0.00,,,0.00,meteohub,2013-02-14 00:32:00,
2013-02-14 02:02:00,30.2,26.2,30.33,NW,315,2.0,3.0,85,0.00,,,0.00,meteohub,2013-02-14 01:02:00,
2013-02-14 02:32:00,30.2,26.2,30.32,NNW,331,0.0,3.0,85,0.00,,,0.00,meteohub,2013-02-14 01:32:00,
2013-02-14 03:02:00,30.2,26.6,30.32,NNW,331,0.0,2.0,86,0.00,,,0.00,meteohub,2013-02-14 02:02:00,
2013-02-14 03:32:00,30.0,26.6,30.32,NNW,331,0.0,1.0,87,0.00,,,0.00,meteohub,2013-02-14 02:32:00,
2013-02-14 04:02:00,30.0,27.0,30.31,NNW,331,0.0,1.0,88,0.00,,,0.00,meteohub,2013-02-14 03:02:00,
2013-02-14 04:32:00,30.0,27.0,30.31,NNW,334,0.0,1.0,88,0.00,,,0.00,meteohub,2013-02-14 03:32:00,
2013-02-14 05:02:00,30.0,27.0,30.31,NNW,334,0.0,0.0,88,0.00,,,0.00,meteohub,2013-02-14 04:02:00,
2013-02-14 05:32:00,30.0,26.6,30.31,NNW,334,1.0,1.0,87,0.00,,,0.00,meteohub,2013-02-14 04:32:00,
2013-02-14 06:02:00,30.0,26.6,30.30,NNW,334,0.0,1.0,87,0.00,,,0.00,meteohub,2013-02-14 05:02:00,
2013-02-14 06:32:00,30.0,26.6,30.29,NNW,332,0.0,3.0,87,0.00,,,0.00,meteohub,2013-02-14 05:32:00,
2013-02-14 07:02:00,30.0,27.0,30.29,NNW,332,0.0,2.0,88,0.00,,,0.00,meteohub,2013-02-14 06:02:00,
2013-02-14 07:32:00,30.0,27.1,30.30,NNW,333,0.0,0.0,89,0.00,,,0.00,meteohub,2013-02-14 06:32:00,
2013-02-14 08:02:00,30.0,27.0,30.30,NNW,333,0.0,0.0,88,0.00,,,0.00,meteohub,2013-02-14 07:02:00,
2013-02-14 08:32:00,30.4,27.0,30.30,NNE,31,2.0,3.0,87,0.00,,,0.00,meteohub,2013-02-14 07:32:00,
2013-02-14 09:02:00,30.6,27.1,30.28,North,5,0.0,3.0,87,0.00,,,0.00,meteohub,2013-02-14 08:02:00,
2013-02-14 09:32:00,30.9,27.5,30.28,NNE,15,0.0,1.0,87,0.00,,,0.00,meteohub,2013-02-14 08:32:00,
2013-02-14 10:02:00,31.3,27.3,30.28,NNE,13,0.0,3.0,85,0.00,,,0.00,meteohub,2013-02-14 09:02:00,
2013-02-14 10:32:00,31.8,27.9,30.28,NNE,13,0.0,2.0,85,0.00,,,0.00,meteohub,2013-02-14 09:32:00,
2013-02-14 11:02:00,32.2,27.7,30.27,NNE,14,0.0,2.0,83,0.01,,,0.01,meteohub,2013-02-14 10:02:00,
2013-02-14 11:32:00,32.4,27.9,30.26,NNE,13,0.0,2.0,83,0.01,,,0.01,meteohub,2013-02-14 10:32:00,
2013-02-14 12:02:00,32.5,27.7,30.25,NNW,344,0.0,3.0,82,0.01,,,0.02,meteohub,2013-02-14 11:02:00,
2013-02-14 12:32:00,33.4,28.2,30.25,ESE,115,2.0,5.0,81,0.01,,,0.02,meteohub,2013-02-14 11:32:00,
2013-02-14 13:02:00,32.9,28.6,30.24,East,93,0.0,3.0,84,0.00,,,0.02,meteohub,2013-02-14 12:02:00,
2013-02-14 13:32:00,33.3,28.6,30.22,ESE,120,0.0,3.0,83,0.01,,,0.02,meteohub,2013-02-14 12:32:00,
2013-02-14 14:02:00,33.3,28.4,30.21,SE,132,0.0,2.0,82,0.00,,,0.02,meteohub,2013-02-14 13:02:00,
2013-02-14 14:32:00,33.4,28.8,30.20,SE,133,0.0,3.0,83,0.00,,,0.02,meteohub,2013-02-14 13:32:00,
2013-02-14 15:02:00,34.0,28.8,30.19,East,97,0.0,3.0,81,0.00,,,0.02,meteohub,2013-02-14 14:02:00,
2013-02-14 15:32:00,33.6,28.4,30.19,East,96,1.0,3.0,81,0.01,,,0.03,meteohub,2013-02-14 14:32:00,
2013-02-14 16:02:00,33.6,28.4,30.18,ESE,111,0.0,3.0,81,0.00,,,0.03,meteohub,2013-02-14 15:02:00,
2013-02-14 16:32:00,33.4,28.6,30.18,ESE,111,0.0,3.0,82,0.00,,,0.03,meteohub,2013-02-14 15:32:00,
2013-02-14 17:02:00,33.3,28.6,30.18,ESE,107,1.0,2.0,83,0.00,,,0.03,meteohub,2013-02-14 16:02:00,
2013-02-14 17:32:00,32.9,28.2,30.17,East,100,0.0,5.0,83,0.01,,,0.04,meteohub,2013-02-14 16:32:00,
2013-02-14 18:02:00,32.7,28.4,30.17,NE,42,0.0,3.0,84,0.01,,,0.04,meteohub,2013-02-14 17:02:00,
2013-02-14 18:32:00,32.7,28.8,30.17,NE,42,0.0,0.0,85,0.00,,,0.04,meteohub,2013-02-14 17:32:00,
2013-02-14 19:02:00,32.7,28.9,30.16,NE,42,0.0,1.0,86,0.00,,,0.04,meteohub,2013-02-14 18:02:00,
2013-02-14 19:32:00,32.7,29.3,30.15,NE,42,0.0,0.0,87,0.00,,,0.04,meteohub,2013-02-14 18:32:00,
2013-02-14 20:02:00,32.5,28.8,30.15,East,83,0.0,3.0,86,0.00,,,0.04,meteohub,2013-02-14 19:02:00,
2013-02-14 20:32:00,32.5,28.8,30.14,East,101,0.0,2.0,86,0.00,,,0.04,meteohub,2013-02-14 19:32:00,
2013-02-14 21:02:00,32.4,28.6,30.14,East,101,0.0,2.0,86,0.00,,,0.04,meteohub,2013-02-14 20:02:00,
2013-02-14 21:32:00,32.4,28.9,30.14,East,101,0.0,1.0,87,0.00,,,0.04,meteohub,2013-02-14 20:32:00,
2013-02-14 22:02:00,32.2,28.8,30.14,East,101,0.0,2.0,87,0.00,,,0.04,meteohub,2013-02-14 21:02:00,
2013-02-14 22:32:00,32.2,28.9,30.13,East,101,0.0,0.0,88,0.00,,,0.04,meteohub,2013-02-14 21:32:00,
2013-02-14 23:02:00,32.2,28.9,30.12,East,101,0.0,2.0,88,0.00,,,0.04,meteohub,2013-02-14 22:02:00,
2013-02-14 23:32:00,31.8,28.9,30.11,East,101,0.0,0.0,89,0.00,,,0.04,meteohub,2013-02-14 22:32:00,